This is the latest recevied weather packets stored in our database for station/object K3JAR-3. If no packets are shown the sender has not sent any weather packets the latest 10 day(s).
| Time | Temp. | Humidity | Pressure | Rain* | Wind** | Luminosity | Snow |
|---|---|---|---|---|---|---|---|
| 1777541422 | 17.22° C | 89% | 1015.6 hPa | 0 mm | - | - | - |
| 1777540820 | 17.22° C | 89% | 1015.6 hPa | 0 mm | - | - | - |
| 1777539616 | 17.22° C | 89% | 1015.7 hPa | 0 mm | - | - | - |
| 1777535426 | 17.22° C | 89% | 1015.3 hPa | 0 mm | - | - | - |
| 1777529428 | 17.22° C | 88% | 1016.5 hPa | 0 mm | - | - | - |
| 1777524021 | 16.67° C | 88% | 1017.3 hPa | 0 mm | - | - | - |
| 1777519220 | 17.22° C | 83% | 1017.3 hPa | 0 mm | - | - | - |
| 1777518624 | 16.67° C | 83% | 1017.3 hPa | 0 mm | - | - | - |
| 1777517432 | 16.67° C | 84% | 1016.6 hPa | 0 mm | - | - | - |
| 1777516817 | 16.67° C | 85% | 1016.6 hPa | 0 mm | - | - | - |
| 1777513217 | 16.11° C | 85% | 1015.2 hPa | 0 mm | - | - | - |
| 1777506618 | 16.67° C | 85% | 1014.7 hPa | 0 mm | - | - | - |
| 1777506016 | 17.22° C | 85% | 1014.2 hPa | 0 mm | - | - | - |
| 1777504220 | 17.22° C | 86% | 1015.1 hPa | 0 mm | - | - | - |
| 1777501817 | 17.78° C | 84% | 1015 hPa | 0 mm | - | - | - |
| 1777497627 | 17.78° C | 83% | 1014.9 hPa | 0 mm | - | - | - |
| 1777494032 | 18.33° C | 87% | 1015.2 hPa | 0 mm | - | - | - |
| 1777492822 | 16.67° C | 90% | 1015.9 hPa | 4.57 mm | - | - | - |
| 1777485017 | 16.11° C | 83% | 1017.8 hPa | 0 mm | - | - | - |
| 1777482633 | 16.67° C | 81% | 1017.7 hPa | 0 mm | - | - | - |
| 1777481422 | 16.11° C | 81% | 1017.3 hPa | 0 mm | - | - | - |
| 1777477832 | 16.11° C | 80% | 1017.8 hPa | 0 mm | - | - | - |
| 1777477272 | 16.11° C | 80% | 1017.5 hPa | 0 mm | - | - | - |
| 1777474822 | 16.11° C | 80% | 1017.3 hPa | 0 mm | - | - | - |
| 1777468218 | 16.67° C | 78% | 1016.6 hPa | 0 mm | - | - | - |
* Rain latest hour (hover to see other rain measurements)
** Current wind speed in m/s (hover to see current wind gust speed)